Notices

What's New in latest Release from April 7th, 2021:

- Updated Glossary, including Speed of Maximum Gust, and Total Hourly Precipitation

- Updated national and regional climate services offices contacts and prices information

- Addition of station inventory lists for 1981-2010, 1971-2000, and 1961-1990 Normals.

If you haven't already, please take our survey and provide feedback about our website: https://eccc.sondage-survey.ca/f/LanguageSelection.aspx?s=442ca660-fcf1-47c0-95a9-59707d6fd709

Hourly Data Report for December 13, 2020

MUSKOKA
ONTARIO
Current Station Operator: NAVCAN

44°58'29.000" N
79°18'12.000" W
281.90 m
6115529
71532
YQA

Download Data

Hourly Data (December 2020)
Hourly Data Report for December 13, 2020
TIME
LST
Temp Definition
°C
Dew Point Definition
°C
Rel Hum Definition
%
Precip. Amount Definition
mm

Wind Dir Definition
10's deg

Wind Spd Definition
km/h
Visibility Definition
km
Stn Press Definition
kPa
Hmdx Definition


Wind Chill Definition


Weather Definition


00:00 5.7 3.8 88 LegendMM 23 34 16.1 96.81     LegendNANA
01:00 3.3 2.1 92 LegendMM 22 22 16.1 96.87     LegendNANA
02:00 0.9 -0.6 90 LegendMM 24 26 16.1 97.04     LegendNANA
03:00 -1.4 -2.7 91 LegendMM 24 18 4.0 97.22   -7 Snow
04:00 -2.8 -4.3 90 LegendMM 26 21 16.1 97.32   -9 LegendNANA
05:00 -4.3 -5.7 90 LegendMM 29 17 16.1 97.42   -10 LegendNANA
06:00 -4.9 -6.8 87 LegendMM 30 24 16.1 97.62   -12 LegendNANA
07:00 -5.2 -7.3 85 LegendMM 29 22 16.1 97.79   -12 LegendNANA
08:00 -5.6 -8.2 82 LegendMM 30 18 16.1 97.88   -12 LegendNANA
09:00 -5.7 -8.1 83 LegendMM 30 13 12.9 97.96   -11 Snow
10:00 -5.8 -8.4 82 LegendMM 31 18 16.1 98.13   -12 Snow
11:00 -5.4 -8.8 77 LegendMM 31 17 16.1 98.19   -11 LegendNANA
12:00 -5.0 -7.9 80 LegendMM 29 11 16.1 98.18   -10 LegendNANA
13:00 -4.6 -7.4 81 LegendMM 29 15 16.1 98.19   -10 LegendNANA
14:00 -4.0 -6.3 84 LegendMM 30 21 16.1 98.24   -10 LegendNANA
15:00 -3.7 -5.7 86 LegendMM 31 11 16.1 98.24   -8 LegendNANA
16:00 -3.3 -5.3 86 LegendMM 29 15 16.1 98.29   -8 LegendNANA
17:00 -3.5 -5.4 87 LegendMM 31 17 16.1 98.32   -9 LegendNANA
18:00 -3.5 -5.2 88 LegendMM 31 8 16.1 98.35   -7 LegendNANA
19:00 -3.5 -4.9 90 LegendMM 28 5 14.5 98.44   -6 LegendNANA
20:00 -3.3 -4.4 92 LegendMM 23 5 16.1 98.43   -5 LegendNANA
21:00 -3.3 -4.4 92 LegendMM 16 4 16.1 98.33   -5 LegendNANA
22:00 -3.1 -3.9 94 LegendMM 15 8 16.1 98.25   -6 LegendNANA
23:00 -3.0 -3.6 96 LegendMM 16 5 3.6 98.25   -5 Snow

Notes on Data Quality.

Legend

  • E = Estimated
  • M = Missing
  • NA = Not Available*
  • [empty] = Indicates an unobserved value
Date modified: